Weather History for Redding, CA

Change the Weather History Date:

Wednesday, November 21, 2012

  Actual Average Record
Temperature  
Mean Temperature 58 °F -  
Max Temperature 63 °F 60 °F 76 °F (2005)
Min Temperature 53 °F 40 °F 27 °F (1993)
Degree Days  
Heating Degree Days 7    
Cooling Degree Days 0    
Growing Degree Days 4 (Base 50)    
Moisture  
Dew Point 47 °F    
Average Humidity 76    
Maximum Humidity 94    
Minimum Humidity 30    
Precipitation  
Precipitation 1.27 in 0.16 in 1.62 in (2001)
Month to date precipitation 4.60 2.82  
Year to date precipitation 24.24 26.69  
Since 1 July precipitation 6.95 5.83  
Sea Level Pressure  
Sea Level Pressure 30.04 in    
Wind  
Wind Speed 17 mph (SW)    
Max Wind Speed 35 mph    
Max Gust Speed 44 mph    
Visibility 8 miles    
Events Fog , Rain    
T = Trace of Precipitation, MM = Missing Value Source: NWS Daily Summary

Daily Weather History Graph

Daily Weather History Graph

Search for Another Location

Airport:

Trip Planner

Search our weather history database for the weather conditions in past years. The results will help you decide how hot, cold, wet, or windy it might be!

Date:

Astronomy

Nov. 21, 2012 Rise Set
Actual Time 7:03 AM PST 4:47 PM PST
Civil Twilight 6:33 AM PST 5:16 PM PST
Nautical Twilight 6:00 AM PST 5:50 PM PST
Astronomical Twilight 5:27 AM PST 6:22 PM PST
Moon 1:07 PM PST (11/21) 12:26 AM PST (11/21)
Length of Visible Light 10h 43m
Length of Day
9h 43m
Waxing Gibbous, 63% of the Moon is Illuminated
Nov 21
Waxing Gibbous
Nov 28
Full
Dec 6
Last Quarter
Dec 13
New
Dec 19
First Quarter

Hourly Weather History & Observations

Time (PST) Temp. Windchill Dew Point Humidity Pressure Visibility Wind Dir Wind Speed Gust Speed Precip Events Conditions
12:39 AM 57.2 °F - 51.8 °F 82% 29.88 in 10.0 mi SSE 25.3 mph 35.7 mph N/A   Overcast
12:53 AM 57.0 °F - 52.0 °F 83% 29.88 in 10.0 mi South 24.2 mph 43.7 mph N/A   Overcast
1:25 AM 55.4 °F - 51.8 °F 88% 29.89 in 10.0 mi South 26.5 mph 36.8 mph 0.00 in Rain Light Rain
1:53 AM 55.9 °F - 52.0 °F 87% 29.88 in 9.0 mi South 32.2 mph 41.4 mph 0.00 in Rain Light Rain
2:02 AM 55.4 °F - 51.8 °F 88% 29.89 in 10.0 mi South 28.8 mph 41.4 mph 0.01 in Rain Light Rain
2:45 AM 55.4 °F - 51.8 °F 88% 29.95 in 9.0 mi WSW 10.4 mph 21.9 mph 0.02 in Rain Light Rain
2:53 AM 54.0 °F - 51.1 °F 90% 29.95 in 2.5 mi WSW 13.8 mph 25.3 mph 0.07 in Rain Heavy Rain
3:06 AM 53.6 °F - 51.8 °F 94% 29.95 in 1.5 mi SW 12.7 mph 24.2 mph 0.16 in Rain Heavy Rain
3:11 AM 53.6 °F - 51.8 °F 94% 29.95 in 0.8 mi West 18.4 mph 29.9 mph 0.37 in Rain Heavy Rain
3:21 AM 53.6 °F - 50.0 °F 88% 29.94 in 0.5 mi WSW 16.1 mph 31.1 mph 1.09 in Fog , Rain Heavy Rain
3:24 AM 55.4 °F - 51.8 °F 88% 29.94 in 1.0 mi WSW 11.5 mph 31.1 mph 1.14 in Rain Rain
3:26 AM 55.4 °F - 51.8 °F 88% 29.95 in 2.0 mi WSW 16.1 mph 31.1 mph 1.14 in Rain Light Rain
3:29 AM 55.4 °F - 51.8 °F 88% 29.95 in 5.0 mi WSW 10.4 mph 19.6 mph 1.14 in Rain Light Rain
3:45 AM 55.4 °F - 51.8 °F 88% 29.93 in 10.0 mi South 21.9 mph 26.5 mph 1.14 in   Overcast
3:53 AM 55.9 °F - 52.0 °F 87% 29.93 in 10.0 mi South 26.5 mph 31.1 mph 1.14 in   Overcast
4:53 AM 55.9 °F - 52.0 °F 87% 29.95 in 10.0 mi South 17.3 mph 27.6 mph 0.00 in   Overcast
5:53 AM 55.9 °F - 52.0 °F 87% 29.96 in 10.0 mi South 19.6 mph 29.9 mph 0.00 in Rain Light Rain
6:53 AM 55.9 °F - 52.0 °F 87% 29.97 in 10.0 mi South 24.2 mph 28.8 mph 0.00 in Rain Light Rain
7:30 AM 55.4 °F - 51.8 °F 88% 30.01 in 10.0 mi SSW 19.6 mph 29.9 mph 0.00 in Rain Light Rain
7:38 AM 55.4 °F - 51.8 °F 88% 30.01 in 8.0 mi South 17.3 mph 24.2 mph 0.01 in Rain Light Rain
7:53 AM 55.0 °F - 52.0 °F 89% 30.02 in 10.0 mi South 19.6 mph 26.5 mph 0.01 in   Overcast
8:53 AM 55.9 °F - 52.0 °F 87% 30.06 in 6.0 mi SSW 10.4 mph - 0.02 in Rain Light Rain
9:53 AM 55.9 °F - 52.0 °F 87% 30.08 in 10.0 mi South 11.5 mph - 0.03 in   Overcast
10:00 AM 55.4 °F - 51.8 °F 88% 30.09 in 10.0 mi South 11.5 mph - N/A   Mostly Cloudy
10:53 AM 59.0 °F - 52.0 °F 78% 30.10 in 10.0 mi Variable 3.5 mph - N/A   Mostly Cloudy
11:05 AM 60.8 °F - 51.8 °F 72% 30.11 in 10.0 mi Calm Calm - N/A   Mostly Cloudy
11:15 AM 59.0 °F - 50.0 °F 72% 30.11 in 10.0 mi NW 5.8 mph - N/A   Scattered Clouds
11:53 AM 61.0 °F - 46.0 °F 58% 30.10 in 10.0 mi Variable 4.6 mph - N/A   Clear
12:53 PM 62.1 °F - 39.0 °F 43% 30.10 in 10.0 mi Variable 4.6 mph - N/A   Scattered Clouds
1:53 PM 63.0 °F - 36.0 °F 37% 30.11 in 10.0 mi NNW 6.9 mph - N/A   Mostly Cloudy
2:53 PM 60.1 °F - 37.9 °F 44% 30.12 in 10.0 mi NNW 5.8 mph - N/A   Mostly Cloudy
3:53 PM 59.0 °F - 36.0 °F 42% 30.14 in 10.0 mi NNW 4.6 mph - N/A   Mostly Cloudy
4:53 PM 55.9 °F - 34.0 °F 44% 30.15 in 10.0 mi NW 3.5 mph - N/A   Mostly Cloudy
5:53 PM 55.0 °F - 34.0 °F 45% 30.17 in 10.0 mi NW 3.5 mph - N/A   Clear
6:53 PM 53.1 °F - 35.1 °F 50% 30.19 in 10.0 mi NW 4.6 mph - N/A   Scattered Clouds
7:53 PM 48.0 °F - 37.9 °F 68% 30.21 in 10.0 mi ENE 5.8 mph - N/A   Clear
8:53 PM 48.0 °F - 39.9 °F 74% 30.22 in 10.0 mi NNW 4.6 mph - N/A   Clear
9:53 PM 46.9 °F - 39.0 °F 74% 30.24 in 10.0 mi NNW 3.5 mph - N/A   Clear
10:53 PM 44.1 °F - 39.0 °F 82% 30.25 in 10.0 mi Calm Calm - N/A   Clear
11:53 PM 45.0 °F 42.6 °F 39.0 °F 80% 30.24 in 10.0 mi Variable 4.6 mph - N/A   Mostly Cloudy